Weather History for Shelbyville, IN

Change the Weather History Date:

Sunday, June 1, 2014

  Actual Average Record
Temperature  
Mean Temperature 76 °F 68 °F  
Max Temperature 90 °F 78 °F 90 °F (2014)
Min Temperature 62 °F 58 °F 43 °F (2003)
Degree Days  
Heating Degree Days 0 1  
Month to date heating degree days 0 1  
Since 1 June heating degree days 0 1  
Since 1 July heating degree days 5702 5396  
Cooling Degree Days 11 4  
Month to date cooling degree days 11 4  
Year to date cooling degree days 174 85  
Since 1 June cooling degree days 11 4  
Growing Degree Days 26 (Base 50)    
Moisture  
Dew Point 59 °F    
Average Humidity 58    
Maximum Humidity 84    
Minimum Humidity 31    
Precipitation  
Precipitation 0.01 in 0.16 in 0.61 in (2006)
Month to date precipitation 0.01 0.16  
Year to date precipitation 15.50 17.94  
Sea Level Pressure  
Sea Level Pressure 30.07 in    
Wind  
Wind Speed 9 mph (SSE)    
Max Wind Speed 20 mph    
Max Gust Speed 24 mph    
Visibility 10 miles    
Events Rain , Thunderstorm    
T = Trace of Precipitation, MM = Missing Value Source: NWS Daily Summary

Daily Weather History Graph

Daily Weather History Graph

Search for Another Location

Airport:

Trip Planner

Search our weather history database for the weather conditions in past years. The results will help you decide how hot, cold, wet, or windy it might be!

Date:

Astronomy

Jun. 01, 2014 Rise Set
Actual Time 6:17 AM EDT 9:04 PM EDT
Civil Twilight 5:45 AM EDT 9:36 PM EDT
Nautical Twilight 5:05 AM EDT 10:16 PM EDT
Astronomical Twilight 4:20 AM EDT 11:02 PM EDT
Moon 9:48 AM EDT No Moon Set
Length of Visible Light 15h 50m
Length of Day
14h 47m
Waxing Crescent, 14% of the Moon is Illuminated
Jun 1
Waxing Crescent
Jun 5
First Quarter
Jun 13
Full
Jun 19
Last Quarter
Jun 27
New

Hourly Weather History & Observations

Time (EDT) Temp. Heat Index Dew Point Humidity Pressure Visibility Wind Dir Wind Speed Gust Speed Precip Events Conditions
12:53 AM 66.0 °F - 54.0 °F 65% 30.12 in 10.0 mi East 5.8 mph - N/A   Clear
1:53 AM 66.9 °F - 54.0 °F 63% 30.11 in 10.0 mi ESE 6.9 mph - N/A   Clear
2:53 AM 68.0 °F - 52.0 °F 56% 30.11 in 10.0 mi ESE 5.8 mph - N/A   Clear
3:53 AM 64.9 °F - 52.0 °F 63% 30.11 in 10.0 mi ESE 8.1 mph - N/A   Clear
4:53 AM 64.9 °F - 51.1 °F 61% 30.11 in 10.0 mi SE 5.8 mph - N/A   Clear
5:53 AM 64.0 °F - 51.1 °F 63% 30.11 in 10.0 mi ESE 4.6 mph - N/A   Clear
6:53 AM 62.1 °F - 52.0 °F 70% 30.12 in 10.0 mi ENE 3.5 mph - N/A   Clear
7:53 AM 68.0 °F - 54.0 °F 61% 30.12 in 10.0 mi ENE 3.5 mph - N/A   Clear
8:53 AM 75.0 °F - 55.0 °F 50% 30.11 in 10.0 mi SE 8.1 mph - N/A   Clear
10:53 AM 81.0 °F 80.5 °F 54.0 °F 39% 30.11 in 10.0 mi South 8.1 mph - N/A   Clear
11:53 AM 84.0 °F 82.9 °F 55.0 °F 37% 30.11 in 10.0 mi SSE 10.4 mph - N/A   Clear
12:53 PM 84.9 °F 83.7 °F 55.9 °F 37% 30.10 in 10.0 mi WSW 9.2 mph - N/A   Clear
1:53 PM 87.1 °F 85.1 °F 54.0 °F 32% 30.08 in 10.0 mi SW 8.1 mph - N/A   Clear
2:53 PM 87.1 °F 85.9 °F 57.0 °F 36% 30.05 in 10.0 mi South 6.9 mph - N/A   Clear
3:53 PM 89.1 °F 88.8 °F 60.1 °F 38% 30.03 in 10.0 mi SSW 11.5 mph 17.3 mph N/A   Clear
4:53 PM 89.1 °F 89.0 °F 61.0 °F 39% 30.00 in 10.0 mi South 9.2 mph - N/A   Partly Cloudy
5:53 PM 88.0 °F 88.4 °F 62.1 °F 42% 30.00 in 10.0 mi SSW 9.2 mph - N/A   Clear
6:51 PM 87.8 °F 88.5 °F 62.6 °F 43% 30.01 in 10.0 mi SW 12.7 mph - N/A Thunderstorm Scattered Clouds
6:53 PM 86.0 °F 87.3 °F 64.0 °F 48% 30.00 in 10.0 mi SW 11.5 mph - N/A Thunderstorm Scattered Clouds
7:06 PM 82.9 °F 84.6 °F 64.9 °F 54% 30.02 in 10.0 mi South 16.1 mph - N/A   Scattered Clouds
7:43 PM 77.0 °F - 66.9 °F 71% 30.03 in 10.0 mi South 18.4 mph - 0.00 in Rain , Thunderstorm Light Rain
7:53 PM 75.0 °F - 66.9 °F 76% 30.02 in 10.0 mi SSW 16.1 mph - 0.00 in Rain , Thunderstorm Light Rain
8:42 PM 73.9 °F - 69.1 °F 85% 30.05 in 10.0 mi SSE 11.5 mph - 0.01 in   Scattered Clouds
8:53 PM 73.0 °F - 68.0 °F 84% 30.03 in 10.0 mi SSE 10.4 mph - 0.01 in   Partly Cloudy
11:53 PM 72.0 °F - 66.9 °F 84% 30.04 in 10.0 mi South 6.9 mph - N/A   Clear